[[{"header":{"parameterUnit":"m.s-1","parameterCategory":2,"la1":30.2991,"la2":30.254,"lo1":-89.0895,"lo2":-89.0444,"dy":0.0017,"dx":0.0017,"nx":28,"ny":28,"refTime":"2023-09-19T21:00:00:Z","depth":"0","parameterNumber":2,"parameterNumberName":"U-component_of_CURRENTS"},"data":[0,0,0,0,0,0,0,0,0,0,0,0,0,0,0,0,0,0,0,0,0,0,0,0,0,0,0,0,0,0,0,0,0,0,0,0,0,0,0,0,0,0,0,0,0,0,0,0,0,0,0,0,0,0,0,0,0,0,0.2505,0.2505,0,0.2534,0.2534,0.2534,0.2522,0.2522,0.2521,0.2521,0.2533,0.2534,0.2534,0,0,0,0,0,0,0,0,0,0,0,0,0,0.246,0.246,0.2504,0.2505,0.2506,0.2534,0.2534,0.2534,0.2522,0.2522,0.2521,0.2521,0.2533,0.2534,0.2535,0,0,0,0,0,0,0,0,0,0,0,0,0,0.2481,0.2461,0.2504,0.2504,0.2505,0.2534,0.2534,0.2534,0.2523,0.2522,0.2521,0.252,0.2532,0.2533,0.2535,0.2558,0,0,0.2538,0.2539,0,0,0,0,0,0,0,0,0.248,0.2483,0.2504,0.2505,0.2505,0.2525,0.2523,0.2542,0.2523,0.2514,0.2521,0.252,0.2531,0.2532,0.2537,0.2558,0.2559,0.2538,0.2539,0.254,0.254,0,0,0,0,0,0,0,0.2479,0.2482,0.2514,0.2505,0.2505,0.2511,0.2512,0.2526,0.2525,0.2515,0.2514,0.2521,0.253,0.2536,0.2537,0.2559,0.2538,0.254,0.254,0.2541,0.2622,0.2623,0,0,0,0,0,0,0.2479,0.248,0.2513,0.2515,0.2493,0.2512,0.2514,0.2518,0.2525,0.2526,0.2521,0.252,0.2534,0.2535,0.2537,0.2579,0.254,0.2541,0.2542,0.2621,0.2622,0.2624,0,0,0,0,0,0,0.2478,0.2481,0.2512,0.25,0.2504,0.2514,0.2518,0.2519,0.2527,0.253,0.253,0.2529,0.2533,0.2536,0.2562,0.2579,0.2541,0.2542,0.2619,0.2621,0.2623,0.2654,0,0,0,0,0,0,0.2476,0.2481,0.2485,0.25,0.2505,0.2537,0.2519,0.252,0.2533,0.2531,0.2537,0.2537,0.2533,0.256,0.2563,0.258,0.2543,0.2617,0.262,0.2622,0.2652,0.2657,0.2662,0,0,0,0,0,0.2474,0.2487,0.2485,0.2489,0.251,0.2538,0.2541,0.2544,0.2534,0.2546,0.2551,0.2537,0.2579,0.2562,0.2565,0.2583,0.2616,0.2619,0.2622,0.2649,0.2656,0.2662,0,0,0,0,0,0,0.2472,0.2488,0.2485,0.2502,0.2521,0.2537,0.255,0.255,0.2564,0.2562,0.2557,0.2559,0.2588,0.2587,0.2569,0.2616,0.2595,0.2599,0.2614,0.2621,0.2626,0.2644,0.2544,0,0,0,0,0,0.2473,0.2485,0.2503,0.2517,0.2528,0.2539,0.255,0.2554,0.2569,0.2573,0.2576,0.2586,0.2605,0.2613,0.2627,0.2655,0.2683,0.2669,0.2675,0.2679,0.2697,0.2755,0.2768,0.2634,0.2634,0.2634,0,0,0.2476,0.2488,0.2494,0.2518,0.2531,0.2555,0.2544,0.2568,0.2587,0.2574,0.2599,0.2606,0.2618,0.2648,0.2661,0.2647,0.2735,0.2683,0.2687,0.2703,0.276,0.2773,0.2785,0.2637,0.2636,0.2636,0,0,0.2493,0.2501,0.2516,0.2534,0.2559,0.2572,0.2581,0.2601,0.2609,0.2636,0.2634,0.2658,0.2675,0.2693,0.2703,0.2751,0.2762,0.275,0.279,0.2845,0.2857,0.2867,0.2929,0.2945,0.275,0.2751,0.2751,0,0.2496,0.2514,0.2527,0.2548,0.2568,0.2581,0.2607,0.2624,0.2648,0.2669,0.2648,0.2703,0.2701,0.2756,0.2767,0.2763,0.2801,0.2759,0.2853,0.2863,0.2874,0.2935,0.2952,0.2752,0.2752,0.2752,0.2752,0,0.2521,0.2538,0.2553,0.2582,0.2608,0.2635,0.2662,0.2691,0.2698,0.2714,0.2764,0.277,0.2809,0.2804,0.2796,0.287,0.2876,0.2853,0.2834,0.2889,0.295,0.2967,0.2755,0.2755,0.2754,0.2753,0,0,0.2518,0.2561,0.2564,0.2583,0.2628,0.2652,0.2702,0.2752,0.2789,0.2808,0.2863,0.2884,0.2894,0.2908,0.2906,0.2941,0.3033,0.2929,0.2931,0.2988,0.3174,0.3129,0.3143,0.3027,0.303,0.3032,0.3191,0,0.2532,0.2571,0.2594,0.2639,0.2665,0.2705,0.2748,0.2797,0.2833,0.289,0.2918,0.2959,0.2932,0.2951,0.2992,0.3036,0.3079,0.2994,0.3116,0.312,0.307,0.3162,0.3028,0.3154,0.3207,0.321,0.3212,0,0.254,0.2569,0.2608,0.2668,0.2684,0.2712,0.2796,0.2837,0.2925,0.2955,0.302,0.3046,0.3132,0.3074,0.3205,0.3156,0.3174,0.3188,0.3194,0.3155,0.3106,0.3107,0.3183,0.3081,0.3239,0.3237,0.3235,0,0.2517,0.2577,0.2607,0.2625,0.2696,0.2727,0.277,0.2852,0.2917,0.3002,0.3081,0.3154,0.3235,0.3272,0.3331,0.3277,0.3465,0.3391,0.3368,0.3365,0.3278,0.3262,0.3266,0.3466,0.3465,0.3465,0.3464,0,0.2512,0.2537,0.2594,0.2606,0.2659,0.271,0.2783,0.2834,0.2949,0.3036,0.3116,0.3209,0.329,0.3407,0.34,0.3477,0.3537,0.3411,0.3413,0.3285,0.3269,0.3195,0.3147,0.3471,0.3469,0.3468,0.3467,0,0.2472,0.2509,0.2548,0.2617,0.2642,0.2675,0.2796,0.2854,0.2972,0.3103,0.3146,0.3317,0.3453,0.3542,0.3628,0.3595,0.3531,0.3624,0.3476,0.3457,0.328,0.3238,0.3185,0.3092,0.3617,0.3617,0.3617,0,0.2452,0.2466,0.2538,0.2567,0.2593,0.2664,0.2715,0.2833,0.291,0.3149,0.321,0.3414,0.3521,0.3691,0.3663,0.3696,0.3557,0.3561,0.3406,0.3286,0.3244,0.3117,0.3032,0.3316,0.3314,0.3312,0.331,0,0.2427,0.2448,0.2486,0.2541,0.2586,0.265,0.2733,0.2803,0.2956,0.3091,0.3251,0.3364,0.3553,0.3537,0.3615,0.3588,0.3381,0.3516,0.3434,0.3056,0.288,0.2784,0.3207,0.3292,0.3294,0.3295,0.3296,0.3297,0.2415,0.2433,0.2484,0.2526,0.2577,0.2614,0.2634,0.2739,0.2853,0.2999,0.3156,0.3259,0.3358,0.3441,0.3415,0.3278,0.326,0.3127,0.3109,0.3008,0.2838,0.3227,0.3276,0.3278,0.3279,0.3281,0.3282,0,0.2408,0.2434,0.2471,0.2513,0.2524,0.2565,0.2632,0.2629,0.2695,0.2839,0.2946,0.3021,0.3043,0.309,0.3045,0.2898,0.2747,0.2794,0.2578,0.2529,0.2922,0.2825,0.2727,0.2727,0.2727,0.2727,0.2727,0.2727,0.2419,0.2439,0.2445,0.2448,0.2462,0.2432,0.2435,0.2433,0.2495,0.2532,0.2562,0.2653,0.281,0.2851,0.273,0.2635,0.2401,0.2284,0.2283,0.2549,0.2577,0.2604,0.2501,0.2336,0.2336,0.1772,0.1767,0.1764]},{"header":{"parameterUnit":"m.s-1","parameterCategory":2,"la1":30.2991,"la2":30.254,"lo1":-89.0895,"lo2":-89.0444,"dy":0.0017,"dx":0.0017,"nx":28,"ny":28,"refTime":"2023-09-19T21:00:00:Z","depth":"0","parameterNumber":3,"parameterNumberName":"V-component_of_CURRENTS"},"data":[0,0,0,0,0,0,0,0,0,0,0,0,0,0,0,0,0,0,0,0,0,0,0,0,0,0,0,0,0,0,0,0,0,0,0,0,0,0,0,0,0,0,0,0,0,0,0,0,0,0,0,0,0,0,0,0,0,0,0.0013,0.0013,0,-0.0036,-0.0037,-0.0038,-0.007,-0.007,-0.007,-0.007,-0.0138,-0.014,-0.0141,0,0,0,0,0,0,0,0,0,0,0,0,0,0.0048,0.0048,0.0013,0.0013,0.0012,-0.0036,-0.0037,-0.0038,-0.007,-0.007,-0.007,-0.0071,-0.0137,-0.0139,-0.0141,0,0,0,0,0,0,0,0,0,0,0,0,0,0.0018,0.0048,0.0014,-0.0009,-0.0011,-0.0036,-0.0037,-0.0038,-0.007,-0.007,-0.007,-0.0071,-0.0137,-0.0139,-0.0142,-0.0154,0,0,-0.0149,-0.015,0,0,0,0,0,0,0,0,0.002,0.0017,-0.0005,-0.0007,-0.001,-0.0046,-0.0049,-0.0077,-0.007,-0.0049,-0.007,-0.0071,-0.0108,-0.0113,-0.0123,-0.0157,-0.016,-0.015,-0.0151,-0.0152,-0.0153,0,0,0,0,0,0,0,0.0022,0.0019,-0.0007,-0.0006,-0.0009,-0.0027,-0.0032,-0.0055,-0.0078,-0.0051,-0.0053,-0.0057,-0.011,-0.0121,-0.0125,-0.0161,-0.015,-0.0152,-0.0153,-0.0154,-0.0202,-0.0202,0,0,0,0,0,0,0.0032,0.0021,-0.0006,-0.0009,0.0006,-0.0028,-0.0033,-0.0035,-0.0077,-0.0084,-0.0057,-0.0058,-0.0116,-0.0122,-0.0127,-0.0129,-0.0152,-0.0155,-0.0156,-0.0202,-0.0202,-0.0202,0,0,0,0,0,0,0.0033,0.003,-0.0004,0.0006,0.0,-0.0028,-0.0031,-0.0036,-0.0045,-0.0082,-0.0088,-0.0059,-0.0117,-0.0124,-0.0142,-0.0133,-0.0156,-0.0158,-0.0202,-0.0202,-0.0202,-0.0142,0,0,0,0,0,0,0.0034,0.0031,0.0034,0.0007,0.0,-0.0012,-0.0031,-0.0037,-0.0047,-0.0049,-0.0086,-0.0093,-0.0117,-0.0138,-0.0144,-0.0137,-0.016,-0.0203,-0.0202,-0.0202,-0.0145,-0.014,-0.0136,0,0,0,0,0,0.0036,0.0043,0.0034,0.0031,0.0004,-0.0011,-0.0016,-0.0038,-0.0046,-0.0047,-0.007,-0.0091,-0.0139,-0.0139,-0.0147,-0.014,-0.0203,-0.0202,-0.0202,-0.0147,-0.0141,-0.0136,0,0,0,0,0,0,0.0059,0.004,0.0029,0.003,0.0013,-0.0016,-0.0017,-0.0033,-0.0052,-0.0052,-0.0089,-0.0097,-0.011,-0.0133,-0.0132,-0.0153,-0.0175,-0.0176,-0.013,-0.0125,-0.0121,-0.0105,-0.0162,0,0,0,0,0,0.0065,0.0066,0.0042,0.0043,0.0038,0.0011,0.0002,-0.0011,-0.0032,-0.004,-0.0067,-0.0094,-0.0114,-0.0125,-0.0149,-0.016,-0.0179,-0.0161,-0.0157,-0.0153,-0.0145,-0.0173,-0.0171,-0.02,-0.02,-0.02,0,0,0.0074,0.0064,0.0064,0.0048,0.0034,0.0037,0.0005,-0.0001,0.0002,-0.0045,-0.005,-0.008,-0.0114,-0.0125,-0.0133,-0.0143,-0.0152,-0.0152,-0.0148,-0.0143,-0.0172,-0.017,-0.0167,-0.0199,-0.02,-0.02,0,0,0.0098,0.0084,0.0096,0.0085,0.0071,0.0057,0.0059,0.0033,0.0022,0.0011,-0.002,-0.0043,-0.0076,-0.0097,-0.0112,-0.0099,-0.0129,-0.0108,-0.0072,-0.0099,-0.0097,-0.0095,-0.0103,-0.0102,-0.0105,-0.0105,-0.0105,0,0.0111,0.012,0.0096,0.0104,0.0104,0.0072,0.0087,0.0072,0.0043,0.0037,0.0019,-0.003,-0.0062,-0.0072,-0.0069,-0.0089,-0.0103,-0.0087,-0.0093,-0.0092,-0.0091,-0.0099,-0.0099,-0.0102,-0.0102,-0.0103,-0.0103,0,0.0141,0.0149,0.0155,0.0158,0.0155,0.016,0.0141,0.0136,0.0118,0.0097,0.0077,0.003,0.0003,-0.0013,-0.0037,-0.0045,-0.0056,-0.0084,-0.0103,-0.0084,-0.0094,-0.0095,-0.0098,-0.0099,-0.01,-0.01,0,0,0.0174,0.0177,0.0181,0.0196,0.0185,0.0191,0.0197,0.0192,0.0204,0.016,0.0167,0.0115,0.0082,0.0063,0.0025,-0.0001,-0.0008,-0.0034,-0.0037,-0.0034,-0.0052,-0.005,-0.0052,-0.0039,-0.0039,-0.0039,-0.0056,0,0.0208,0.0241,0.0231,0.0269,0.0286,0.0264,0.0277,0.0267,0.0248,0.0246,0.0189,0.0175,0.0114,0.0105,0.0069,0.0018,-0.0011,0.0,-0.0077,-0.0078,-0.0074,-0.0053,-0.0025,-0.0038,-0.0058,-0.0058,-0.0058,0,0.0247,0.0265,0.0306,0.0334,0.034,0.0355,0.0375,0.0379,0.0359,0.0342,0.0307,0.0264,0.0227,0.0169,0.0085,0.0096,0.0027,-0.0023,-0.0025,-0.0045,-0.0079,-0.0063,-0.0039,-0.0194,-0.006,-0.006,-0.006,0,0.0294,0.0323,0.0362,0.0368,0.0389,0.0405,0.0413,0.0405,0.0432,0.0399,0.0428,0.0346,0.0342,0.0233,0.0137,0.0108,0.0053,-0.0004,-0.007,-0.007,-0.0072,-0.0072,-0.0201,-0.0075,-0.0075,-0.0075,-0.0075,0,0.0338,0.0372,0.0387,0.0409,0.0467,0.0453,0.0509,0.05,0.0516,0.0578,0.0482,0.0527,0.0358,0.0311,0.018,0.0076,0.0084,-0.0053,-0.0075,-0.0049,-0.0047,-0.0203,-0.0291,-0.0076,-0.0076,-0.0075,-0.0075,0,0.0384,0.0393,0.0445,0.0475,0.0492,0.0529,0.0589,0.0632,0.0632,0.0717,0.072,0.0676,0.0617,0.0462,0.0308,0.0164,-0.004,-0.0009,0.0046,0.003,-0.0202,-0.0286,-0.0422,-0.0482,-0.0097,-0.0097,-0.0097,0,0.041,0.0441,0.05,0.0545,0.0561,0.0617,0.0669,0.0684,0.0747,0.0832,0.0892,0.086,0.0885,0.0663,0.0387,0.0164,0.0001,0.0011,-0.0059,-0.0201,-0.0311,-0.0375,-0.0421,-0.0033,-0.0032,-0.0032,-0.0031,0,0.0464,0.0485,0.0531,0.0621,0.0684,0.0766,0.0841,0.0917,0.0972,0.1075,0.1196,0.1226,0.1023,0.08,0.0466,0.0298,-0.0089,0.0011,-0.0157,-0.0284,-0.0341,-0.0412,-0.0027,-0.0028,-0.0028,-0.0029,-0.0029,-0.0029,0.0512,0.0557,0.0624,0.0711,0.0794,0.0911,0.0994,0.1111,0.126,0.1427,0.1429,0.151,0.115,0.0705,0.045,-0.0043,-0.0062,-0.0211,-0.0301,-0.0353,-0.0417,-0.0012,-0.0031,-0.0031,-0.0032,-0.0032,-0.0032,0,0.0573,0.0628,0.0712,0.0824,0.0926,0.0955,0.1114,0.1219,0.1427,0.1585,0.1708,0.158,0.1161,0.0696,0.0027,-0.0312,-0.0431,-0.0493,-0.0593,-0.0627,-0.0282,-0.0286,-0.0335,-0.0335,-0.0335,-0.0334,-0.0334,-0.0334,0.0613,0.0701,0.0742,0.0918,0.1,0.1145,0.1242,0.1418,0.1557,0.1766,0.1816,0.182,0.1449,0.0309,-0.0475,-0.064,-0.0869,-0.0906,-0.1039,-0.0828,-0.0809,-0.0792,-0.0818,-0.0978,-0.0978,-0.1331,-0.1334,-0.1337]}],[{"header":{"parameterUnit":"m.s-1","parameterCategory":2,"la1":30.2991,"la2":30.254,"lo1":-89.0895,"lo2":-89.0444,"dy":0.0017,"dx":0.0017,"nx":28,"ny":28,"refTime":"2023-09-19T21:00:00:Z","depth":"2","parameterNumber":2,"parameterNumberName":"U-component_of_CURRENTS"},"data":[0,0,0,0,0,0,0,0,0,0,0,0,0,0,0,0,0,0,0,0,0,0,0,0,0,0,0,0,0,0,0,0,0,0,0,0,0,0,0,0,0,0,0,0,0,0,0,0,0,0,0,0,0,0,0,0,0,0,0.2281,0.2281,0,0.2305,0.2305,0.2305,0.2304,0.2304,0.2304,0.2304,0.2319,0.2319,0.232,0,0,0,0,0,0,0,0,0,0,0,0,0,0.2246,0.2247,0.2281,0.2281,0.2282,0.2305,0.2305,0.2305,0.2304,0.2304,0.2304,0.2304,0.2318,0.2319,0.232,0,0,0,0,0,0,0,0,0,0,0,0,0,0.2263,0.2247,0.2281,0.2285,0.2286,0.2304,0.2305,0.2305,0.2304,0.2304,0.2304,0.2304,0.2318,0.2319,0.232,0.233,0,0,0.2322,0.2323,0,0,0,0,0,0,0,0,0.2262,0.2264,0.2284,0.2285,0.2286,0.2303,0.2298,0.2314,0.2304,0.2296,0.2304,0.2303,0.2314,0.2315,0.2318,0.2331,0.2332,0.2323,0.2323,0.2323,0.2324,0,0,0,0,0,0,0,0.2261,0.2263,0.2289,0.2285,0.2286,0.229,0.2292,0.2301,0.2305,0.2297,0.2297,0.2302,0.2314,0.2317,0.2318,0.2332,0.2323,0.2323,0.2324,0.2324,0.2395,0.2396,0,0,0,0,0,0,0.2261,0.2262,0.2288,0.229,0.2275,0.2291,0.2293,0.2296,0.2305,0.2306,0.2302,0.2302,0.2316,0.2317,0.2319,0.2363,0.2323,0.2324,0.2325,0.2393,0.2395,0.2396,0,0,0,0,0,0,0.226,0.2263,0.2287,0.2278,0.2281,0.2292,0.2296,0.2297,0.2309,0.231,0.231,0.2314,0.2316,0.2318,0.2338,0.2362,0.2325,0.2325,0.2392,0.2394,0.2396,0.2432,0,0,0,0,0,0,0.2259,0.2262,0.2268,0.2278,0.2282,0.2306,0.2296,0.2298,0.2313,0.2313,0.232,0.2321,0.2315,0.2337,0.2339,0.2363,0.2326,0.239,0.2393,0.2395,0.2429,0.2435,0.244,0,0,0,0,0,0.2258,0.2267,0.2268,0.2271,0.2288,0.2307,0.231,0.2315,0.2314,0.2324,0.233,0.2321,0.2355,0.2339,0.2341,0.2365,0.2389,0.2392,0.2395,0.2427,0.2434,0.244,0,0,0,0,0,0,0.2254,0.2268,0.2269,0.2282,0.2297,0.2308,0.232,0.2323,0.2336,0.2338,0.2334,0.2336,0.2366,0.2362,0.2345,0.2395,0.2372,0.2376,0.2396,0.2403,0.2408,0.242,0.2327,0,0,0,0,0,0.2257,0.2267,0.2281,0.2293,0.2302,0.2313,0.2323,0.2328,0.234,0.2346,0.2351,0.2362,0.238,0.2387,0.24,0.2424,0.2437,0.2444,0.2449,0.2454,0.2466,0.2504,0.2514,0.2406,0.2406,0.2406,0,0,0.2259,0.2269,0.2275,0.2293,0.2306,0.2324,0.2318,0.234,0.2358,0.2346,0.2373,0.2382,0.2391,0.242,0.2433,0.242,0.2493,0.2458,0.2461,0.2471,0.2508,0.2519,0.2528,0.2408,0.2408,0.2408,0,0,0.227,0.228,0.2292,0.2307,0.233,0.2339,0.2349,0.2367,0.2379,0.2404,0.2406,0.2431,0.2449,0.2465,0.2474,0.252,0.2523,0.2525,0.2561,0.2597,0.2606,0.2614,0.2651,0.2662,0.2526,0.2526,0.2526,0,0.2273,0.2287,0.23,0.2317,0.2332,0.2348,0.2367,0.2386,0.2409,0.2427,0.2418,0.2469,0.2473,0.2518,0.2536,0.2533,0.2555,0.2531,0.2604,0.2612,0.262,0.2655,0.2667,0.2528,0.2528,0.2528,0.2528,0,0.2289,0.2305,0.2317,0.2342,0.2362,0.2382,0.2409,0.2436,0.2452,0.2468,0.2516,0.2527,0.2559,0.2566,0.2565,0.2627,0.2626,0.2607,0.2585,0.2633,0.2667,0.2679,0.2531,0.253,0.253,0.2529,0,0,0.2281,0.232,0.2323,0.2338,0.2375,0.2392,0.2436,0.2477,0.2507,0.2537,0.2581,0.2617,0.2629,0.2642,0.2648,0.2679,0.2751,0.2671,0.2672,0.2704,0.2841,0.2797,0.2805,0.2746,0.2748,0.275,0.2845,0,0.2288,0.2318,0.2339,0.2372,0.239,0.2426,0.2459,0.2502,0.2539,0.2587,0.2623,0.2665,0.2656,0.2678,0.2712,0.2747,0.2783,0.2727,0.2793,0.2796,0.2747,0.2818,0.2581,0.2642,0.2856,0.2858,0.2859,0,0.2289,0.231,0.2338,0.2383,0.2394,0.2418,0.248,0.2519,0.2594,0.2623,0.2682,0.2714,0.2788,0.276,0.2853,0.2821,0.2841,0.2857,0.286,0.2815,0.2773,0.2628,0.2655,0.2879,0.2877,0.2876,0.2874,0,0.2261,0.2308,0.2328,0.2343,0.2396,0.2423,0.2462,0.2529,0.2582,0.2663,0.2726,0.2782,0.2852,0.288,0.2936,0.2901,0.3031,0.2979,0.2958,0.2955,0.2765,0.2742,0.304,0.304,0.304,0.304,0.304,0,0.2248,0.2265,0.2318,0.2326,0.2362,0.2408,0.2463,0.2511,0.2604,0.2673,0.2752,0.2821,0.2892,0.2976,0.2975,0.3024,0.3068,0.2989,0.2985,0.2772,0.2749,0.2955,0.2944,0.3043,0.3043,0.3042,0.3041,0,0.2207,0.2239,0.2266,0.2323,0.2346,0.2375,0.2476,0.2514,0.262,0.2725,0.2768,0.29,0.2992,0.306,0.3123,0.3098,0.312,0.3119,0.2871,0.2836,0.3005,0.2995,0.3096,0.3095,0.3094,0.3094,0.3094,0,0.2186,0.2194,0.2255,0.2277,0.2303,0.2363,0.2396,0.2499,0.2561,0.2755,0.2803,0.2957,0.3017,0.3125,0.3099,0.3111,0.3146,0.2897,0.2778,0.3029,0.3015,0.3005,0.2996,0.2542,0.2537,0.2533,0.253,0,0.215,0.2171,0.2194,0.2236,0.2271,0.232,0.2395,0.2445,0.2576,0.2664,0.2776,0.2846,0.2985,0.2886,0.2944,0.2904,0.2869,0.2817,0.3157,0.2567,0.2515,0.2499,0.2506,0.2495,0.2498,0.2501,0.2503,0.2504,0.2123,0.2128,0.2159,0.2192,0.2233,0.2263,0.2262,0.234,0.2403,0.25,0.2637,0.2663,0.2712,0.2666,0.2589,0.2542,0.2727,0.2579,0.2587,0.2601,0.2523,0.2472,0.243,0.2433,0.2436,0.2438,0.244,0,0.2075,0.2092,0.2119,0.2137,0.2126,0.219,0.224,0.2197,0.2197,0.2312,0.2368,0.2221,0.2189,0.2241,0.2121,0.2129,0.2071,0.2029,0.1917,0.1957,0.199,0.1875,0.1614,0.1611,0.1608,0.1606,0,0,0.2055,0.2045,0.2052,0.2019,0.2032,0.1993,0.1989,0.1938,0.1972,0.1924,0.193,0.2106,0.2198,0.1879,0.1839,0.1701,0.1807,0.1636,0.2308,0.2217,0.2246,0.2329,0.22,0,0,0,0,0]},{"header":{"parameterUnit":"m.s-1","parameterCategory":2,"la1":30.2991,"la2":30.254,"lo1":-89.0895,"lo2":-89.0444,"dy":0.0017,"dx":0.0017,"nx":28,"ny":28,"refTime":"2023-09-19T21:00:00:Z","depth":"2","parameterNumber":3,"parameterNumberName":"V-component_of_CURRENTS"},"data":[0,0,0,0,0,0,0,0,0,0,0,0,0,0,0,0,0,0,0,0,0,0,0,0,0,0,0,0,0,0,0,0,0,0,0,0,0,0,0,0,0,0,0,0,0,0,0,0,0,0,0,0,0,0,0,0,0,0,0.0081,0.0081,0,0.004,0.004,0.0039,0.0007,0.0007,0.0007,0.0007,-0.0043,-0.0044,-0.0045,0,0,0,0,0,0,0,0,0,0,0,0,0,0.0103,0.0103,0.0081,0.0081,0.0081,0.004,0.004,0.0039,0.0007,0.0007,0.0007,0.0007,-0.0042,-0.0044,-0.0045,0,0,0,0,0,0,0,0,0,0,0,0,0,0.008,0.0103,0.0081,0.0061,0.0058,0.004,0.004,0.0039,0.0007,0.0007,0.0007,0.0006,-0.0042,-0.0043,-0.0045,-0.0049,0,0,-0.005,-0.0051,0,0,0,0,0,0,0,0,0.0081,0.0079,0.0064,0.0062,0.006,0.0029,0.0029,0.0009,0.0007,0.0026,0.0007,0.0006,-0.0018,-0.0022,-0.003,-0.0051,-0.0053,-0.005,-0.0051,-0.0052,-0.0053,0,0,0,0,0,0,0,0.0083,0.0081,0.0064,0.0064,0.0061,0.0043,0.004,0.0025,0.0005,0.0024,0.0022,0.0019,-0.002,-0.0029,-0.0032,-0.0054,-0.005,-0.0052,-0.0053,-0.0054,-0.0079,-0.0079,0,0,0,0,0,0,0.0092,0.0082,0.0065,0.0063,0.0071,0.0043,0.0039,0.0039,0.0005,0.0,0.0019,0.0018,-0.0026,-0.003,-0.0034,-0.003,-0.0052,-0.0054,-0.0055,-0.0079,-0.0079,-0.0078,0,0,0,0,0,0,0.0093,0.0091,0.0067,0.0072,0.0068,0.0044,0.0043,0.0038,0.0031,0.0002,-0.0004,0.0018,-0.0026,-0.0031,-0.0041,-0.0032,-0.0054,-0.0056,-0.008,-0.0079,-0.0079,-0.0028,0,0,0,0,0,0,0.0094,0.0092,0.0094,0.0073,0.0068,0.0063,0.0043,0.0037,0.003,0.0027,-0.0001,-0.0006,-0.0027,-0.0039,-0.0043,-0.0035,-0.0057,-0.008,-0.0079,-0.0079,-0.003,-0.0026,-0.0022,0,0,0,0,0,0.0094,0.0104,0.0095,0.0093,0.0073,0.0064,0.006,0.004,0.003,0.0032,0.0012,-0.0005,-0.0038,-0.004,-0.0045,-0.0037,-0.008,-0.008,-0.0079,-0.0032,-0.0027,-0.0022,0,0,0,0,0,0,0.0114,0.0101,0.0091,0.0095,0.0083,0.0059,0.0059,0.0045,0.003,0.0029,-0.0001,-0.0007,-0.0013,-0.0031,-0.0033,-0.0043,-0.0062,-0.0063,-0.0025,-0.002,-0.0016,-0.0002,-0.0059,0,0,0,0,0,0.012,0.0123,0.0106,0.0109,0.0105,0.0083,0.0076,0.0065,0.0049,0.0041,0.002,-0.0001,-0.0015,-0.0022,-0.0039,-0.0043,-0.0064,-0.0042,-0.0038,-0.0034,-0.0026,-0.0053,-0.005,-0.0076,-0.0076,-0.0076,0,0,0.0128,0.0122,0.0123,0.0113,0.0101,0.0107,0.0078,0.0075,0.008,0.0039,0.0038,0.0012,-0.0013,-0.0018,-0.0022,-0.0031,-0.0038,-0.0033,-0.003,-0.0024,-0.0052,-0.0049,-0.0047,-0.0076,-0.0076,-0.0076,0,0,0.0152,0.0141,0.0153,0.0146,0.0136,0.0126,0.0129,0.0108,0.0099,0.0093,0.0066,0.0049,0.0025,0.0009,-0.0001,0.0015,-0.0017,0.0007,0.0041,0.0015,0.0017,0.0018,-0.0004,-0.0005,0.0011,0.0011,0.0011,0,0.0162,0.0175,0.0155,0.0165,0.0167,0.014,0.0157,0.0145,0.0124,0.0121,0.0101,0.0066,0.004,0.0038,0.004,0.0025,0.0005,0.0026,0.0021,0.0022,0.0022,-0.0001,-0.0003,0.0013,0.0013,0.0013,0.0013,0,0.0193,0.0203,0.021,0.0217,0.0217,0.0226,0.0212,0.021,0.0194,0.0178,0.0165,0.0125,0.0106,0.0092,0.007,0.0065,0.0048,0.0028,0.0011,0.0028,0.0002,-0.0,0.0017,0.0016,0.0015,0.0015,0,0,0.022,0.0231,0.0234,0.025,0.0246,0.0255,0.0266,0.0269,0.0283,0.0245,0.0255,0.0213,0.0182,0.0169,0.0134,0.0109,0.009,0.0074,0.0071,0.0056,0.0034,0.0012,0.0007,0.0067,0.0066,0.0066,0.0015,0,0.0252,0.0288,0.0283,0.0322,0.0342,0.0327,0.0346,0.0343,0.0328,0.0329,0.028,0.027,0.0215,0.0206,0.0172,0.0116,0.0085,0.0106,0.0016,0.0014,-0.0005,0.0004,0.0033,-0.0011,0.0012,0.0012,0.0012,0,0.0288,0.0309,0.0351,0.0386,0.0394,0.0411,0.044,0.0449,0.0438,0.0424,0.0396,0.0357,0.0319,0.0266,0.0174,0.019,0.0117,0.0065,0.0061,0.0022,-0.0013,-0.0026,-0.0018,0.0007,0.0007,0.0008,0.0008,0,0.0326,0.0361,0.0401,0.0408,0.0438,0.0457,0.0473,0.0476,0.0503,0.0478,0.0499,0.0429,0.0415,0.0312,0.0197,0.0185,0.0095,0.0063,-0.0026,-0.0029,-0.003,-0.0032,-0.0007,-0.0007,-0.0007,-0.0007,-0.0006,0,0.0366,0.0398,0.042,0.0441,0.0502,0.0498,0.0556,0.0557,0.0577,0.063,0.0549,0.0575,0.0426,0.0358,0.023,0.0101,0.0116,-0.0016,-0.0042,-0.0012,-0.0012,-0.0018,-0.0018,-0.0008,-0.0008,-0.0008,-0.0007,0,0.0401,0.0413,0.0464,0.0501,0.0521,0.056,0.0626,0.0668,0.0673,0.0741,0.0742,0.0692,0.0597,0.0443,0.0283,0.0161,0.0024,-0.0031,0.0016,-0.0005,-0.0092,-0.0089,-0.0132,-0.0134,-0.0135,-0.0135,-0.0136,0,0.0421,0.0449,0.0511,0.0553,0.0571,0.0631,0.0684,0.071,0.0766,0.0823,0.0869,0.08,0.0767,0.0518,0.0284,0.0056,0.0023,-0.007,-0.0095,-0.0083,-0.0104,-0.01,-0.0096,-0.0077,-0.0077,-0.0078,-0.0078,0,0.0462,0.0481,0.0524,0.0611,0.0671,0.0754,0.0829,0.0895,0.0947,0.1003,0.106,0.1034,0.0812,0.0579,0.0263,0.0114,-0.0035,-0.008,-0.0073,-0.0051,-0.0035,-0.0055,-0.0052,-0.0079,-0.0079,-0.0079,-0.0079,-0.0079,0.0494,0.0533,0.0593,0.0678,0.0757,0.0867,0.0944,0.1032,0.1134,0.1221,0.1195,0.1157,0.0903,0.0494,0.0224,-0.0053,-0.0039,-0.0139,-0.0136,-0.0134,-0.0119,-0.0107,-0.0161,-0.0161,-0.0161,-0.0161,-0.0162,0,0.0535,0.0583,0.0661,0.0762,0.0852,0.0893,0.1039,0.111,0.1234,0.1297,0.1325,0.1089,0.083,0.0535,0.0122,-0.0126,-0.0135,-0.02,-0.0159,-0.0156,-0.0153,-0.0139,-0.0186,-0.0187,-0.0188,-0.0188,0,0,0.0559,0.0633,0.0673,0.0822,0.09,0.1033,0.1122,0.1226,0.13,0.1343,0.1323,0.1265,0.0917,0.0611,0.0277,0.0039,0.0001,0.0,0.005,0.0142,0.0147,-0.0085,-0.0054,0,0,0,0,0]}],[{"header":{"parameterUnit":"m.s-1","parameterCategory":2,"la1":30.2991,"la2":30.254,"lo1":-89.0895,"lo2":-89.0444,"dy":0.0017,"dx":0.0017,"nx":28,"ny":28,"refTime":"2023-09-19T21:00:00:Z","depth":"4","parameterNumber":2,"parameterNumberName":"U-component_of_CURRENTS"},"data":[0,0,0,0,0,0,0,0,0,0,0,0,0,0,0,0,0,0,0,0,0,0,0,0,0,0,0,0,0,0,0,0,0,0,0,0,0,0,0,0,0,0,0,0,0,0,0,0,0,0,0,0,0,0,0,0,0,0,0.1474,0.1475,0,0.1515,0.1515,0.1516,0.1559,0.1559,0.156,0.1561,0.1609,0.161,0.1611,0,0,0,0,0,0,0,0,0,0,0,0,0,0.1422,0.1423,0.1474,0.1475,0.1476,0.1515,0.1515,0.1516,0.1558,0.1559,0.156,0.1561,0.1609,0.161,0.1611,0,0,0,0,0,0,0,0,0,0,0,0,0,0.145,0.1423,0.1474,0.1503,0.1506,0.1515,0.1515,0.1516,0.1558,0.1559,0.156,0.1561,0.1609,0.161,0.1611,0.1594,0,0,0.1613,0.1614,0,0,0,0,0,0,0,0,0.1449,0.1452,0.1498,0.1501,0.1504,0.1534,0.1515,0.1543,0.1558,0.1537,0.1561,0.1562,0.1585,0.1588,0.1591,0.1596,0.1598,0.1614,0.1614,0.1614,0.1615,0,0,0,0,0,0,0,0.1447,0.1451,0.1489,0.1498,0.1502,0.151,0.1515,0.152,0.1553,0.1539,0.1542,0.1549,0.1587,0.159,0.1592,0.1599,0.1613,0.1614,0.1615,0.1615,0.1695,0.1697,0,0,0,0,0,0,0.1444,0.1449,0.1488,0.149,0.1481,0.151,0.1516,0.1522,0.1553,0.1559,0.1548,0.1551,0.1588,0.1591,0.1594,0.1663,0.1614,0.1615,0.1616,0.1694,0.1695,0.1697,0,0,0,0,0,0,0.1443,0.1447,0.1486,0.1472,0.1477,0.151,0.1517,0.1522,0.1559,0.156,0.1567,0.1582,0.1589,0.1593,0.1627,0.1662,0.1616,0.1617,0.1692,0.1694,0.1696,0.1746,0,0,0,0,0,0,0.1441,0.1447,0.1465,0.1471,0.1478,0.1512,0.1516,0.1523,0.156,0.1565,0.1591,0.1595,0.159,0.1625,0.1628,0.1663,0.1617,0.169,0.1693,0.1696,0.1742,0.175,0.1756,0,0,0,0,0,0.1439,0.1453,0.1465,0.1471,0.1497,0.1513,0.1517,0.1542,0.1561,0.1579,0.1599,0.1596,0.1646,0.1627,0.1629,0.1666,0.1688,0.1692,0.1695,0.1739,0.1748,0.1756,0,0,0,0,0,0,0.1441,0.1459,0.1473,0.1493,0.1513,0.1521,0.1545,0.156,0.159,0.1606,0.1608,0.1612,0.1659,0.1654,0.1633,0.1699,0.167,0.1674,0.1703,0.1711,0.1718,0.172,0.1618,0,0,0,0,0,0.1449,0.1468,0.1483,0.1504,0.1517,0.1538,0.1554,0.1571,0.1591,0.1607,0.1625,0.1648,0.1669,0.1684,0.1699,0.1728,0.1731,0.1756,0.1763,0.1769,0.1774,0.1806,0.1816,0.1709,0.1709,0.1709,0,0,0.1456,0.147,0.1483,0.1508,0.1527,0.1545,0.1551,0.1585,0.161,0.1606,0.1656,0.1673,0.1683,0.172,0.1741,0.1724,0.1804,0.1774,0.1778,0.178,0.181,0.1821,0.183,0.1711,0.1711,0.171,0,0,0.1468,0.1495,0.1512,0.1531,0.1565,0.1574,0.1591,0.1619,0.1647,0.1685,0.1696,0.1735,0.1764,0.1779,0.1788,0.1841,0.184,0.1856,0.1891,0.1922,0.1931,0.1939,0.1964,0.1974,0.1858,0.1858,0.1858,0,0.1481,0.15,0.1521,0.1541,0.156,0.159,0.161,0.1638,0.1677,0.1701,0.1713,0.1777,0.179,0.1831,0.1857,0.1857,0.1873,0.1856,0.193,0.1938,0.1945,0.1969,0.1979,0.1861,0.186,0.186,0.186,0,0.1493,0.1523,0.1537,0.157,0.1592,0.1619,0.1651,0.1692,0.173,0.1752,0.1816,0.1839,0.1876,0.1894,0.1894,0.1956,0.1952,0.1935,0.1906,0.1959,0.1981,0.1991,0.1865,0.1864,0.1863,0.1862,0,0,0.1481,0.1535,0.1544,0.1564,0.1612,0.1626,0.168,0.1723,0.1759,0.1816,0.1861,0.1917,0.1941,0.1954,0.1968,0.2001,0.2072,0.1999,0.1999,0.2019,0.2148,0.2018,0.2016,0.2073,0.2075,0.2076,0.2145,0,0.1487,0.1524,0.1551,0.1592,0.161,0.1658,0.1695,0.1744,0.1793,0.1845,0.1897,0.1945,0.196,0.199,0.2029,0.2062,0.2099,0.2055,0.2098,0.2099,0.1973,0.2023,0.2082,0.2152,0.2154,0.2156,0.2157,0,0.1481,0.1508,0.1547,0.1598,0.1612,0.1644,0.171,0.1751,0.1829,0.1869,0.1936,0.1973,0.2051,0.2046,0.2139,0.2115,0.2143,0.2161,0.2164,0.203,0.1987,0.2088,0.2174,0.2173,0.2171,0.217,0.2169,0,0.1442,0.1502,0.1533,0.1552,0.1614,0.1652,0.1694,0.1765,0.1813,0.1897,0.195,0.2019,0.209,0.2129,0.2197,0.2175,0.2286,0.225,0.2159,0.2151,0.2224,0.2215,0.231,0.231,0.231,0.231,0.231,0,0.1415,0.1446,0.1525,0.154,0.1582,0.1636,0.1693,0.1745,0.1833,0.1883,0.1971,0.2024,0.2121,0.2197,0.2217,0.2226,0.2309,0.2173,0.216,0.2244,0.2237,0.2231,0.2221,0.2313,0.2312,0.2312,0.2311,0,0.136,0.1415,0.1456,0.1535,0.1564,0.1598,0.17,0.1732,0.1835,0.1911,0.195,0.2072,0.215,0.2231,0.2306,0.2256,0.2264,0.2247,0.2352,0.2343,0.2099,0.2091,0.2125,0.2121,0.2118,0.2115,0.2112,0,0.1331,0.1349,0.1444,0.1468,0.1511,0.1577,0.1612,0.1719,0.1757,0.1917,0.1937,0.2074,0.2136,0.2149,0.2225,0.2248,0.2229,0.2218,0.2133,0.2096,0.2081,0.2078,0.2075,0.2107,0.2106,0.2105,0.2104,0,0.1271,0.1322,0.1355,0.141,0.1457,0.1498,0.1566,0.1587,0.1704,0.1831,0.188,0.1926,0.2017,0.2059,0.2114,0.2119,0.2204,0.2182,0.2187,0.2107,0.2075,0.2063,0.2063,0.2093,0.2094,0.2096,0.2096,0,0.123,0.124,0.1294,0.1327,0.1383,0.1389,0.144,0.1484,0.1544,0.1716,0.1728,0.1866,0.1991,0.1995,0.2033,0.204,0.1995,0.1918,0.1936,0.195,0.186,0.1791,0.1716,0,0,0,0,0,0.1178,0.1174,0.1201,0.1225,0.1276,0.1308,0.1386,0.1439,0.1565,0.1556,0.1638,0.1703,0.1763,0.1833,0.1804,0.1948,0.2,0.1904,0.192,0.2028,0.2041,0.1951,0,0,0,0,0,0,0.1139,0.1165,0.1166,0.1131,0.113,0.117,0.1214,0.1299,0.1298,0.1441,0.1483,0.1602,0.1687,0.177,0.1775,0.1796,0.177,0.1995,0.1991,0.202,0.2032,0.2043,0.1955,0,0,0,0,0]},{"header":{"parameterUnit":"m.s-1","parameterCategory":2,"la1":30.2991,"la2":30.254,"lo1":-89.0895,"lo2":-89.0444,"dy":0.0017,"dx":0.0017,"nx":28,"ny":28,"refTime":"2023-09-19T21:00:00:Z","depth":"4","parameterNumber":3,"parameterNumberName":"V-component_of_CURRENTS"},"data":[0,0,0,0,0,0,0,0,0,0,0,0,0,0,0,0,0,0,0,0,0,0,0,0,0,0,0,0,0,0,0,0,0,0,0,0,0,0,0,0,0,0,0,0,0,0,0,0,0,0,0,0,0,0,0,0,0,0,0.0101,0.0101,0,0.0078,0.0078,0.0077,0.0055,0.0055,0.0054,0.0054,0.0026,0.0025,0.0025,0,0,0,0,0,0,0,0,0,0,0,0,0,0.0107,0.0107,0.0101,0.0101,0.01,0.0078,0.0078,0.0077,0.0055,0.0055,0.0054,0.0054,0.0026,0.0025,0.0025,0,0,0,0,0,0,0,0,0,0,0,0,0,0.0095,0.0107,0.0101,0.0087,0.0086,0.0078,0.0078,0.0077,0.0055,0.0055,0.0054,0.0054,0.0026,0.0025,0.0025,0.0026,0,0,0.0022,0.0022,0,0,0,0,0,0,0,0,0.0096,0.0095,0.0089,0.0088,0.0087,0.007,0.0069,0.006,0.0055,0.0066,0.0054,0.0054,0.0041,0.0039,0.0034,0.0025,0.0024,0.0022,0.0022,0.0021,0.0021,0,0,0,0,0,0,0,0.0097,0.0096,0.0091,0.0089,0.0087,0.0076,0.0074,0.0067,0.0055,0.0065,0.0063,0.0062,0.004,0.0035,0.0033,0.0023,0.0022,0.0021,0.0021,0.002,0.0013,0.0014,0,0,0,0,0,0,0.0103,0.0097,0.0092,0.009,0.0091,0.0076,0.0074,0.0075,0.0055,0.0052,0.0062,0.0061,0.0037,0.0034,0.0032,0.0041,0.0021,0.002,0.002,0.0013,0.0014,0.0014,0,0,0,0,0,0,0.0103,0.0103,0.0093,0.0093,0.0091,0.0077,0.0078,0.0075,0.0071,0.0053,0.005,0.0063,0.0036,0.0033,0.003,0.0039,0.002,0.0019,0.0013,0.0013,0.0014,0.0053,0,0,0,0,0,0,0.0103,0.0103,0.0106,0.0094,0.0092,0.0093,0.0078,0.0074,0.0071,0.0069,0.0052,0.0049,0.0036,0.0032,0.003,0.0038,0.0019,0.0012,0.0013,0.0014,0.0051,0.0054,0.0057,0,0,0,0,0,0.0104,0.0112,0.0107,0.0106,0.0097,0.0094,0.0091,0.0079,0.0072,0.0074,0.0062,0.005,0.0034,0.0032,0.0029,0.0037,0.0012,0.0013,0.0014,0.005,0.0054,0.0057,0,0,0,0,0,0,0.0117,0.011,0.0104,0.011,0.0104,0.009,0.0092,0.0083,0.0075,0.0075,0.0055,0.0052,0.0051,0.0039,0.0037,0.0036,0.002,0.002,0.0049,0.0052,0.0055,0.0066,0.0018,0,0,0,0,0,0.0122,0.0127,0.0117,0.0122,0.012,0.0107,0.0104,0.0097,0.0088,0.0084,0.0071,0.0059,0.0052,0.0049,0.0039,0.0041,0.002,0.0043,0.0046,0.0049,0.0056,0.0032,0.0033,0.0016,0.0016,0.0016,0,0,0.0128,0.0126,0.0128,0.0125,0.0119,0.0125,0.0104,0.0105,0.0111,0.0083,0.0087,0.0071,0.0055,0.0055,0.0054,0.0047,0.0042,0.005,0.0053,0.0058,0.0033,0.0034,0.0036,0.0017,0.0017,0.0016,0,0,0.0146,0.0142,0.0152,0.015,0.0145,0.0141,0.0143,0.0133,0.0128,0.0129,0.011,0.01,0.0089,0.0079,0.0073,0.0088,0.0059,0.0083,0.011,0.0086,0.0087,0.0088,0.0059,0.0057,0.0086,0.0086,0.0086,0,0.0154,0.0166,0.0155,0.0163,0.0168,0.0151,0.0166,0.0161,0.015,0.0151,0.0136,0.0119,0.0101,0.0104,0.0106,0.0096,0.0075,0.0098,0.0091,0.0091,0.0091,0.0061,0.0059,0.0088,0.0088,0.0087,0.0087,0,0.0177,0.0188,0.0195,0.0203,0.0207,0.0216,0.0211,0.0213,0.0206,0.0196,0.0192,0.0166,0.0156,0.0146,0.0131,0.0128,0.0109,0.0096,0.0082,0.0095,0.0063,0.0059,0.0091,0.009,0.0089,0.0089,0,0,0.0193,0.0209,0.0212,0.0226,0.023,0.0239,0.0253,0.0261,0.0274,0.0252,0.0262,0.0237,0.0216,0.0208,0.0184,0.0161,0.0138,0.0132,0.013,0.0106,0.008,0.0058,0.0051,0.0122,0.0122,0.0121,0.0054,0,0.0216,0.0246,0.0248,0.0282,0.0299,0.0295,0.0315,0.0319,0.0312,0.0315,0.0283,0.028,0.0242,0.0238,0.021,0.0159,0.0131,0.0157,0.0069,0.0066,0.0047,0.0048,0.0121,0.0052,0.0051,0.005,0.005,0,0.024,0.0259,0.0295,0.0331,0.0339,0.0359,0.0389,0.0401,0.0398,0.039,0.0373,0.0346,0.0316,0.028,0.0198,0.0215,0.0153,0.0106,0.0102,0.0068,0.0038,0.0036,0.0043,0.0043,0.0044,0.0044,0.0045,0,0.0261,0.0295,0.0329,0.0338,0.0371,0.0393,0.0414,0.0424,0.0447,0.0434,0.0446,0.0397,0.0382,0.03,0.02,0.0199,0.0101,0.0087,0.0007,0.0004,0.0026,0.0026,0.0025,0.0026,0.0026,0.0026,0.0026,0,0.0284,0.0313,0.0344,0.0361,0.0415,0.0423,0.0476,0.0483,0.0504,0.0534,0.0487,0.0492,0.0386,0.0318,0.0218,0.01,0.0111,0.0012,-0.0013,0.0043,0.0046,0.0023,0.0024,0.0023,0.0024,0.0024,0.0025,0,0.03,0.0317,0.0362,0.0405,0.0427,0.0462,0.0528,0.0561,0.0571,0.0609,0.0611,0.0564,0.0469,0.0353,0.0215,0.013,0.0014,-0.0033,0.0033,0.0013,-0.0072,-0.0068,-0.0121,-0.0123,-0.0124,-0.0125,-0.0125,0,0.0308,0.0331,0.0394,0.0429,0.0452,0.051,0.0556,0.0591,0.0627,0.065,0.0669,0.06,0.0548,0.0345,0.0208,0.0012,-0.0019,-0.008,-0.0074,-0.0067,-0.0086,-0.0081,-0.0076,-0.0127,-0.0127,-0.0128,-0.0128,0,0.0324,0.0347,0.0384,0.0457,0.0512,0.0582,0.0645,0.0677,0.0716,0.0732,0.0717,0.0619,0.051,0.0345,0.019,0.0049,-0.0039,-0.0091,-0.009,-0.0085,-0.0075,-0.0091,-0.0085,-0.0132,-0.0131,-0.0131,-0.0131,0,0.0337,0.0365,0.0416,0.0482,0.0555,0.0627,0.0663,0.0706,0.0745,0.0765,0.0753,0.0639,0.0575,0.0363,0.022,0.0078,0.0042,-0.0003,-0.0006,-0.0004,0.0045,0.0076,0.0046,0,0,0,0,0,0.0346,0.038,0.0438,0.0512,0.0585,0.0633,0.0713,0.0741,0.0778,0.0774,0.0768,0.0663,0.0461,0.0374,0.0229,0.0184,0.0007,0.0008,-0.0049,-0.0153,-0.0148,-0.0113,0,0,0,0,0,0,0.0351,0.0403,0.0434,0.0525,0.0578,0.0666,0.0719,0.0747,0.0745,0.0757,0.0652,0.0618,0.0417,0.0541,0.0223,0.0181,0.0122,-0.0081,-0.0084,-0.0155,-0.0151,-0.0148,-0.011,0,0,0,0,0]}]]